Location: Scottsville
(37.8064°N, 78.4920°W)
Time: 12:36:02
(UTC+00:00)

Envisat - Visible Passes

Search period start: 23 June 2024 00:00
Search period end: 03 July 2024 00:00
Orbit: 762 x 764 km, 98.3° (Epoch: 22 June)

Date Brightness Start Highest point End Pass type
(mag) Time Alt. Az. Time Alt. Az. Time Alt. Az.
23 Jun 5.5 07:09:38 10° ENE 07:11:52 13° E 07:14:05 10° ESE visible
23 Jun 3.1 08:46:13 10° N 08:51:15 65° WNW 08:56:15 10° SSW visible
24 Jun 3.6 08:08:55 10° NNE 08:13:53 53° E 08:18:26 12° S visible
25 Jun 4.9 07:32:21 10° NE 07:36:20 23° E 07:40:17 10° SE visible
25 Jun 3.7 09:10:43 10° N 09:15:21 37° WNW 09:19:59 10° SW visible
26 Jun 3.0 08:33:02 10° NNE 08:38:07 87° WNW 08:42:55 12° SSW visible
27 Jun 4.1 07:55:57 10° NNE 08:00:42 39° E 08:05:04 12° SSE visible
28 Jun 5.3 07:19:49 10° NE 07:23:04 17° E 07:26:19 10° SE visible
28 Jun 3.3 08:57:23 10° N 09:02:17 50° WNW 09:07:08 10° SSW visible
29 Jun 3.2 08:19:55 10° NNE 08:24:59 70° ESE 08:29:31 13° S visible
30 Jun 4.6 07:43:04 10° NE 07:47:29 29° E 07:51:40 11° SSE visible
30 Jun 4.1 09:22:00 10° N 09:26:21 29° WNW 09:30:40 10° SW visible
01 Jul 5.5 07:07:44 10° ENE 07:09:47 12° E 07:11:50 10° ESE visible
01 Jul 3.0 08:44:08 10° N 08:49:11 67° WNW 08:53:58 11° SSW visible
02 Jul 3.6 08:06:51 10° NNE 08:11:49 52° E 08:16:07 13° S visible
